Regional Weather Roundup
Issued by NWS Newport/Morehead, NC

Current Version | Previous Version | Text Only | Print | Product List | Glossary Off
Versions: 1 2 3 4 5 6 7 8 9 10 11 12 13 14 15 16 17 18 19 20 21 22 23 24 25 26 27 28 29 30 31 32 33 34 35 36 37 38 39 40 41 42 43 44 45 46 47 48 49 50
000 ASUS42 KMHX 271825 RWRMHX WEATHER ROUNDUP FOR EASTERN NORTH CAROLINA NATIONAL WEATHER SERVICE NEWPORT/MOREHEAD CITY NC 200 PM EDT WED JUL 27 2016 NOTE: "FAIR" INDICATES FEW OR NO CLOUDS BELOW 12,000 FEET WITH NO SIGNIFICANT WEATHER AND/OR OBSTRUCTIONS TO VISIBILITY NCZ015>017-031-032-045>047-102-103-271900- NORTH COAST CITY SKY/WX TMP DP RH WIND PRES REMARKS EDENTON MOSUNNY 91 75 59 SW6 29.95F HX 102 ELIZABETH CITY SUNNY 93 77 59 W8 29.93F HX 107 KITTY HAWK CLEAR 95 74 50 NW5 29.93F HX 105 MANTEO N/A 89 78 68 NW6 29.95F HX 103 $$ NCZ045>047-081-094-103-104-271900- CENTRAL COAST CITY SKY/WX TMP DP RH WIND PRES REMARKS FRISCO SUNNY 88 78 72 VRB6 29.96F HX 101 $$ NCZ095-097-098-100-101-271900- SOUTHERN COAST CITY SKY/WX TMP DP RH WIND PRES REMARKS BEAUFORT MOSUNNY 89 78 70 SW15 29.97F HX 103 CEDAR ISLAND NOT AVBL JACKSONVILLE SUNNY 95 73 48 W10 29.96F HX 104 PINEY ISLAND NOT AVBL WILMINGTON SUNNY 96 73 47 W12 29.97F HX 105 $$ NCZ011>013-027>030-043-044-078>080-089-090>093-098-271900- COASTAL PLAIN CITY SKY/WX TMP DP RH WIND PRES REMARKS AHOSKIE SUNNY 88 77 70 CALM 29.95F HX 101 CLINTON SUNNY 97 74 48 NW5 29.97F HX 109 ELIZABETHTOWN SUNNY 97 72 45 SW9 29.97F HX 105 GOLDSBORO SUNNY 95 76 55 W9 29.95F HX 108 GREENVILLE MOSUNNY 95 79 59 W3 29.97F HX 112 HAVELOCK MOSUNNY 94 77 57 VRB6 29.97F HX 108 KENANSVILLE NOT AVBL KINSTON SUNNY 95 73 49 W3 29.96F HX 105 NEW BERN SUNNY 94 76 55 NW5 29.97F HX 106 RICHLANDS PTSUNNY 98 77 50 W9 29.97F HX 113 ROCKY MOUNT MOSUNNY 93 78 61 VRB5 29.96F HX 108 WASHINGTON MOSUNNY 91 78 65 CALM 29.95F HX 106 WHITEVILLE SUNNY 95 74 49 SW6 29.98F HX 105 $$ AMZ130-135-150-152-154-156-158-170-250-252-270-ANZ085-086-088-633-658-670-271900- MARINE OBSERVATIONS STATION/POSITION TIME TEMP WIND PRES WAVE SWELL AIR SEA DIR/SP/G HT/PER HT/PER (UTC) (F) (DEG/KT/KT) (MB) (FT/S) (FT/S) CHESAPEAKE LIGHT NOT AVBL 64 E VA BEACH 1750 82 82 210/ 6/ 6 1013.6 3/ 6 2/ 6 DUCK 1800 83 69 130/ 6/ 6 1013.1 2 E DUCK 1811 79 N/A 1/ 5 OREGON INLET 1800 87 84 50/ 5/ 7 1013.9 13E OREGON INLT 1800 85 N/A 2/ 5 2/ 5 HATTERAS CG 1800 87 83 260/ 6/ 8 1014.3 DIAMOND BUOY 1750 84 85 250/ 8/ 10 1014.6 3/ 6 3/ 6 CAPE LOOKOUT 1800 87 230/ 11/ 14 1014.7 BEAUFORT LAB 1800 89 82 210/ 8/ 10 1014.3 30 SE NEW RVR IN 1808 85 85 230/ 12/ 17 1015.1 30 SE NEW RVR IN 1755 85 N/A 4/ 6 27 SE WRIGHTSVLE 1808 85 84 230/ 14/ 17 1015.4 5 SE WRIGHTSVLE 1708 84 81 210/ 10/ 14 1016.2 225 S CAPE HAT 1750 85 85 300/ 12/ 12 1017.8 4/ 6 3/ 6 41 SE CHARLESTON 1750 84 86 230/ 10/ 12 1016.9 3/ 6 2/ 6 $$

USA.gov is the U.S. government's official web portal to all federal, state and local government web resources and services.